When you browse on this site, cookies collect data to enhance your experience and personalize the content and advertising you see.
Visit our Privacy Policy to learn more. By continuing to use the site, you agree to this use of cookies and data.
  • In Hungary
  • List of Countries
  • For 7 days
  • Water Temperature
  • Weather Map
  • News
  • Weather Widgets
  • user-avatar
    Login

    Hourly Weather Caprivi

    Today, 14 November, Thursday

    Time Temperature Precipitation Wind Pressure Humidity
    00:00 +24°C° 0 mm 2 mps 679 mmHg 83%
    01:00 +24°C° 0 mm 1 mps 679 mmHg 83%
    02:00 +24°C° 0 mm 1 mps 679 mmHg 83%
    03:00 +24°C° 0 mm 1 mps 679 mmHg 84%
    04:00 +23°C° 0 mm 2 mps 678 mmHg 85%
    05:00 +23°C° 0 mm 2 mps 678 mmHg 87%
    06:00 +24°C° 0 mm 2 mps 679 mmHg 82%
    07:00 +24°C° 0 mm 2 mps 680 mmHg 77%
    08:00 +25°C° 0 mm 2 mps 680 mmHg 72%
    09:00 +27°C° 0 mm 2 mps 680 mmHg 65%
    10:00 +28°C° 0 mm 2 mps 680 mmHg 58%
    11:00 +30°C° 0 mm 1 mps 680 mmHg 52%
    12:00 +31°C° 0 mm 1 mps 680 mmHg 49%
    13:00 +31°C° 0 mm 1 mps 679 mmHg 47%
    14:00 +32°C° 0 mm 1 mps 679 mmHg 45%
    15:00 +32°C° 0 mm 1 mps 678 mmHg 45%
    16:00 +32°C° 0 mm 1 mps 678 mmHg 45%
    17:00 +31°C° 0 mm 1 mps 677 mmHg 45%
    18:00 +30°C° 0 mm 1 mps 677 mmHg 49%
    19:00 +29°C° 0 mm 1 mps 677 mmHg 53%
    20:00 +28°C° 0 mm 1 mps 678 mmHg 57%
    21:00 +28°C° 0 mm 1 mps 678 mmHg 58%
    22:00 +27°C° 0 mm 1 mps 678 mmHg 59%
    23:00 +27°C° 0 mm 1 mps 678 mmHg 59%

    Tomorrow, 15 November, Friday

    Time Temperature Precipitation Wind Pressure Humidity
    00:00 +27°C° 0 mm 1 mps 678 mmHg 60%
    01:00 +26°C° 0 mm 1 mps 677 mmHg 60%
    02:00 +26°C° 0 mm 1 mps 677 mmHg 60%
    03:00 +26°C° 0 mm 1 mps 677 mmHg 62%
    04:00 +25°C° 0 mm 1 mps 677 mmHg 63%
    05:00 +25°C° 0 mm 1 mps 677 mmHg 64%
    06:00 +26°C° 0 mm 1 mps 677 mmHg 60%
    07:00 +28°C° 0 mm 2 mps 678 mmHg 56%
    08:00 +29°C° 0 mm 3 mps 679 mmHg 52%
    09:00 +31°C° 0 mm 3 mps 679 mmHg 45%
    10:00 +34°C° 0 mm 3 mps 679 mmHg 39%
    11:00 +37°C° 0 mm 2 mps 679 mmHg 33%
    12:00 +37°C° 0 mm 2 mps 678 mmHg 31%
    13:00 +37°C° 0 mm 2 mps 678 mmHg 29%
    14:00 +36°C° 0 mm 1 mps 677 mmHg 27%
    15:00 +37°C° 0 mm 2 mps 676 mmHg 28%
    16:00 +37°C° 0 mm 2 mps 676 mmHg 29%
    17:00 +37°C° 0 mm 2 mps 676 mmHg 30%
    18:00 +35°C° 0 mm 2 mps 676 mmHg 36%
    19:00 +32°C° 0 mm 2 mps 676 mmHg 43%
    20:00 +30°C° 0 mm 2 mps 676 mmHg 49%
    21:00 +29°C° 0 mm 2 mps 676 mmHg 54%
    22:00 +28°C° 0 mm 2 mps 676 mmHg 59%
    23:00 +27°C° 0 mm 2 mps 676 mmHg 63%

    Day after tomorrow, 16 November, Saturday

    Time Temperature Precipitation Wind Pressure Humidity
    00:00 +26°C° 0 mm 2 mps 676 mmHg 64%
    01:00 +26°C° 0 mm 2 mps 675 mmHg 66%
    02:00 +26°C° 0 mm 2 mps 675 mmHg 67%
    03:00 +25°C° 0 mm 2 mps 675 mmHg 68%
    04:00 +25°C° 0 mm 2 mps 675 mmHg 69%
    05:00 +25°C° 0 mm 2 mps 675 mmHg 70%
    06:00 +26°C° 0 mm 2 mps 676 mmHg 65%
    07:00 +28°C° 0 mm 2 mps 677 mmHg 60%
    08:00 +29°C° 0 mm 2 mps 678 mmHg 55%
    09:00 +31°C° 0 mm 3 mps 678 mmHg 49%
    10:00 +34°C° 0 mm 3 mps 678 mmHg 42%
    11:00 +37°C° 0 mm 3 mps 678 mmHg 35%
    12:00 +37°C° 0 mm 3 mps 678 mmHg 33%
    13:00 +37°C° 0 mm 3 mps 677 mmHg 31%
    14:00 +38°C° 0 mm 3 mps 676 mmHg 28%
    15:00 +35°C° 0.4 mm 3 mps 675 mmHg 36%
    16:00 +31°C° 0.4 mm 3 mps 675 mmHg 44%
    17:00 +29°C° 0.4 mm 3 mps 674 mmHg 52%
    18:00 +29°C° 0.2 mm 3 mps 674 mmHg 51%
    19:00 +29°C° 0.2 mm 2 mps 675 mmHg 50%
    20:00 +28°C° 0.2 mm 2 mps 675 mmHg 49%
    21:00 +28°C° 0.2 mm 2 mps 676 mmHg 53%
    22:00 +28°C° 0.2 mm 2 mps 676 mmHg 57%
    23:00 +27°C° 0.2 mm 2 mps 676 mmHg 61%

    17 November, Sunday

    Time Temperature Precipitation Wind Pressure Humidity
    00:00 +27°C° 0 mm 2 mps 676 mmHg 63%
    01:00 +26°C° 0 mm 2 mps 675 mmHg 65%
    02:00 +26°C° 0 mm 2 mps 675 mmHg 68%
    03:00 +26°C° 0 mm 2 mps 675 mmHg 68%
    04:00 +25°C° 0 mm 2 mps 675 mmHg 69%
    05:00 +25°C° 0 mm 2 mps 675 mmHg 70%
    06:00 +27°C° 0 mm 2 mps 675 mmHg 65%
    07:00 +28°C° 0 mm 2 mps 676 mmHg 60%
    08:00 +29°C° 0 mm 2 mps 677 mmHg 55%
    09:00 +32°C° 0 mm 2 mps 677 mmHg 47%
    10:00 +35°C° 0 mm 2 mps 677 mmHg 40%
    11:00 +37°C° 0 mm 3 mps 678 mmHg 33%
    12:00 +37°C° 0 mm 3 mps 677 mmHg 31%
    13:00 +37°C° 0 mm 3 mps 676 mmHg 30%
    14:00 +38°C° 0 mm 3 mps 676 mmHg 28%
    15:00 +36°C° 0.2 mm 3 mps 675 mmHg 32%
    16:00 +35°C° 0.2 mm 2 mps 675 mmHg 35%
    17:00 +33°C° 0.2 mm 1 mps 675 mmHg 39%
    18:00 +31°C° 0.6 mm 2 mps 675 mmHg 46%
    19:00 +29°C° 0.6 mm 2 mps 675 mmHg 54%
    20:00 +27°C° 0.6 mm 2 mps 676 mmHg 62%
    21:00 +27°C° 0.5 mm 2 mps 676 mmHg 63%
    22:00 +27°C° 0.5 mm 2 mps 676 mmHg 63%
    23:00 +26°C° 0.5 mm 1 mps 677 mmHg 64%

    18 November, Monday

    Time Temperature Precipitation Wind Pressure Humidity
    00:00 +26°C° 0.3 mm 2 mps 676 mmHg 65%
    01:00 +26°C° 0.3 mm 2 mps 676 mmHg 66%
    02:00 +26°C° 0.3 mm 2 mps 676 mmHg 67%
    03:00 +26°C° 0.3 mm 3 mps 676 mmHg 68%
    04:00 +25°C° 0.3 mm 3 mps 676 mmHg 69%
    05:00 +25°C° 0.3 mm 4 mps 676 mmHg 70%
    06:00 +25°C° 0 mm 4 mps 676 mmHg 70%
    07:00 +25°C° 0 mm 5 mps 677 mmHg 70%
    08:00 +26°C° 0 mm 5 mps 677 mmHg 70%
    09:00 +27°C° 0 mm 5 mps 677 mmHg 63%
    10:00 +29°C° 0 mm 4 mps 677 mmHg 57%
    11:00 +30°C° 0 mm 3 mps 677 mmHg 51%
    12:00 +33°C° 0 mm 4 mps 677 mmHg 43%
    13:00 +35°C° 0 mm 4 mps 677 mmHg 36%
    14:00 +37°C° 0 mm 4 mps 677 mmHg 28%
    15:00 +37°C° 0 mm 4 mps 677 mmHg 29%
    16:00 +36°C° 0 mm 4 mps 676 mmHg 31%
    17:00 +36°C° 0 mm 4 mps 676 mmHg 32%
    18:00 +34°C° 0 mm 4 mps 676 mmHg 37%
    19:00 +31°C° 0 mm 3 mps 676 mmHg 42%
    20:00 +29°C° 0 mm 3 mps 676 mmHg 48%
    21:00 +28°C° 0 mm 2 mps 677 mmHg 51%
    22:00 +27°C° 0 mm 2 mps 677 mmHg 55%
    23:00 +27°C° 0 mm 2 mps 677 mmHg 59%

    19 November, Tuesday

    Time Temperature Precipitation Wind Pressure Humidity
    00:00 +26°C° 0 mm 2 mps 677 mmHg 60%
    01:00 +26°C° 0 mm 2 mps 677 mmHg 61%
    02:00 +26°C° 0 mm 2 mps 676 mmHg 62%
    03:00 +25°C° 0.1 mm 2 mps 677 mmHg 64%
    04:00 +25°C° 0.1 mm 2 mps 677 mmHg 65%
    05:00 +24°C° 0.1 mm 2 mps 677 mmHg 67%
    06:00 +25°C° 0 mm 3 mps 677 mmHg 65%
    07:00 +26°C° 0 mm 3 mps 678 mmHg 63%
    08:00 +27°C° 0 mm 4 mps 678 mmHg 61%
    09:00 +28°C° 0.6 mm 4 mps 678 mmHg 57%
    10:00 +30°C° 0.6 mm 4 mps 678 mmHg 52%
    11:00 +33°C° 0.6 mm 4 mps 679 mmHg 47%
    12:00 +34°C° 0.1 mm 4 mps 678 mmHg 43%
    13:00 +35°C° 0.1 mm 4 mps 677 mmHg 39%
    14:00 +36°C° 0.1 mm 4 mps 677 mmHg 35%
    15:00 +36°C° 0 mm 4 mps 677 mmHg 35%
    16:00 +35°C° 0 mm 4 mps 676 mmHg 36%
    17:00 +35°C° 0 mm 3 mps 676 mmHg 37%
    18:00 +33°C° 0 mm 3 mps 676 mmHg 43%
    19:00 +32°C° 0 mm 4 mps 676 mmHg 48%
    20:00 +29°C° 0 mm 4 mps 676 mmHg 54%
    21:00 +28°C° 0 mm 4 mps 676 mmHg 55%
    22:00 +28°C° 0 mm 4 mps 676 mmHg 57%
    23:00 +27°C° 0 mm 4 mps 677 mmHg 58%
    Show more